NOAA-17
1 27453U 02032A 12039.70282574 .00000145 00000-0 80358-4 0 05914
2 27453 098.3527 073.1974 0011921 171.8439 188.2923 14.24391387500320
NOAA-18
1 28654U 05018A 12039.78202172 .00000450 00000-0 27255-3 0 00683
2 28654 099.0300 356.9074 0014585 156.2532 203.9314 14.11603612346302
NOAA-19
1 33591U 09005A 12039.76092142 .00000134 00000-0 98270-4 0 02565
2 33591 098.8528 341.2349 0014608 029.9831 330.2198 14.11289824154758
HUBBLE
1 20580U 90037B 12039.98254251 .00001145 00000-0 72367-4 0 9401
2 20580 028.4702 268.8502 0003398 124.3941 235.6882 15.02169671995283
ISS
1 25544U 98067A 12040.76880787 .00010337 00000-0 13657-3 0 9784
2 25544 051.6420 046.1921 0020281 025.8807 332.5641 15.58787466757983
CO-58
1 28895U 05043F 12040.63079737 .00000324 00000-0 75809-4 0 941
2 28895 097.9334 272.4216 0017499 192.1318 167.9471 14.60475585334895
FALCON
1 30776U 07006E 12039.93980681 .00003351 00000-0 22448-3 0 02791
2 30776 035.4343 345.6840 0003238 320.1638 039.8842 15.06574739270747
MAST
1 31126U 07012K 12040.54424121 .00000338 00000-0 85631-4 0 3796
2 31126 097.8805 059.1508 0094506 151.0513 209.5965 14.54028005255579
CAPE1
1 31130U 07012P 12040.67694457 .00000464 00000-0 11588-3 0 3919
2 31130 097.8887 055.7501 0102111 162.7559 197.7154 14.52762755255113
COMPASS
1 32787U 08021E 12039.78988501 .00001063 00000-0 13545-3 0 02195
2 32787 097.8176 103.9363 0016463 122.1492 238.1328 14.83486707204622
AAUSAT2
1 32788U 08021F 12040.59494043 .00001354 00000-0 16956-3 0 2103
2 32788 097.8215 105.0410 0016350 120.2706 240.0130 14.83767654204766
DO-64
1 32789U 08021G 12040.68851948 .00002932 00000-0 34998-3 0 2250
2 32789 097.8303 106.7096 0015988 117.7025 242.5801 14.84909300204808
CO-66
1 32791U 08021J 12040.67728373 .00001394 00000-0 17756-3 0 2127
2 32791 097.8183 104.6394 0016755 118.2785 242.0142 14.83000392204699
RS-30
1 32953U 08025A 12040.91102933 .00000010 00000-0 00000 0 0 5077
2 32953 082.5019 014.8995 0017518 226.3727 133.5904 12.43020780168621
TACSAT-3
1 35001U 09028A 12039.71592599 .00083376 00000-0 60018-3 0 08703
2 35001 040.4474 158.7091 0005624 058.2516 301.8857 15.72506809153968
PHARMSAT
1 35002U 09028B 12039.75434883 .00042085 00000-0 42544-3 0 7894
2 35002 040.4659 162.2210 0005556 202.3045 157.7539 15.64463591153933
METEOR-M
1 35865U 09049A 12040.72359953 -.00000020 00000-0 10702-4 0 1369
2 35865 098.6732 097.3551 0003290 069.1287 291.0235 14.21855089124340
RS-38
1 35869U 09049E 12040.83354548 .00000004 00000-0 21287-4 0 1361
2 35869 098.6701 097.4781 0005400 067.6605 292.5144 14.22053343124370
JUGNU
1 37839U 11058B 12038.43773030 .00000620 00000-0 19019-3 0 00831
2 37839 019.9611 070.3053 0018603 223.5355 136.3480 14.12022914016749
SRMSAT
1 37841U 11058D 12039.44684889 .00000264 00000-0 00000-0 0 00841
2 37841 019.9735 066.5213 0012319 206.7344 153.2461 14.10113459016866
RAX-2
1 37853U 11061D 12039.94403546 .00005956 00000-0 48432-3 0 01097
2 37853 101.7123 021.4113 0251381 358.9570 001.1065 14.78763399015299
AUBIESAT
1 37854U 11061E 12039.86078466 .00007091 00000-0 56715-3 0 00991
2 37854 101.7140 021.3802 0252366 358.7387 001.3155 14.79048434015267
HRBE
1 37855U 11061F 12040.87886036 .00006322 00000-0 50672-3 0 942
2 37855 101.7178 022.8554 0252957 355.9272 003.9864 14.78975612 15415
RS-39
1 38051U 11062C 12040.77677083 .00007271 00000-0 32615-3 0 481
2 38051 051.6502 050.6986 0011282 303.9512 045.7028 15.22167607 2396
